#timestamp,LO_Frequency,Hit,StdDev 
1635854415.6,286046996.5,Y
1635854435.5,286047000.5,P
1635854455.3,286047000.0,N
1635854475.2,286047000.4,N
1635854495.9,286046999.8,N
1635854515.7,286047001.2,N
1635854535.6,286047000.3,N
1635854555.4,286047000.6,N
1635854575.3,286046998.3,N
1635854595.1,286047000.8,N
1635854596.0,286047000.8,N
1635854615.8,286046999.9,N
1635854635.7,286047000.9,N
1635854655.5,286046998.3,N
1635854675.3,286046998.1,N
1635854695.2,286046996.5,Y
1635854715.0,286046999.5,P
1635854715.9,286046999.5,N
1635854735.8,286046999.1,P
1635854755.6,286046996.5,Y
1635854775.4,286046998.9,P
1635854795.3,286046998.4,P
1635854815.1,286047000.9,N
1635854835.9,286046998.3,N
1635854855.7,286046999.5,N
1635854875.5,286046998.2,N
1635854895.4,286046998.6,N
1635854915.2,286046998.9,N
1635854935.0,286046999.0,N
1635854935.9,286046999.0,N
1635854955.8,286046999.0,N
1635854975.6,286046997.1,Y
1635854995.5,286046999.1,P
1635855015.3,286046999.4,P
1635855035.1,286046996.5,P
1635855055.9,286046997.8,N
1635855075.7,286046994.9,Y
1635855095.6,286047000.6,P
1635855115.4,286047000.4,N
1635855135.2,286047000.9,N
1635855155.1,286046998.3,N
1635855156.0,286046998.3,N
1635855175.8,286046998.2,N
1635855195.6,286046999.2,N
1635855215.5,286046996.7,Y
1635855235.3,286046999.2,P
1635855255.2,286046999.3,P
1635855275.9,286046999.6,P
1635855295.7,286046999.3,Y
1635855315.6,286046998.7,P
1635855335.4,286046998.6,P
1635855355.2,286047001.0,N
1635855375.1,286046998.6,N
1635855376.0,286046998.6,N
1635855395.8,286046998.7,N
1635855415.7,286047001.2,N
1635855435.5,286046998.2,N
1635855455.3,286047000.6,N
1635855475.2,286046998.2,N
1635855495.0,286046998.5,N
1635855495.9,286046998.5,N
1635855515.8,286046998.7,N
1635855535.6,286046999.5,N
1635855555.4,286046997.1,Y
1635855575.3,286046996.8,P
1635855595.1,286046997.0,N
1635855615.8,286046997.7,N
1635855635.7,286046995.0,Y
1635855655.5,286046998.7,P
1635855675.4,286046999.4,N
1635855695.2,286046999.4,N
1635855745.1,286046997.1,E
1635855755.9,286046999.0,N
1635855775.7,286047000.4,P
1635855795.6,286047000.9,N
1635855815.4,286047001.0,N
1635855835.2,286047000.2,N
1635855855.1,286047002.0,N
1635855856.0,286047002.0,N
1635855875.8,286046999.7,N
1635855895.6,286046999.9,N
1635855915.5,286047000.0,N
1635855935.3,286047000.4,N
1635855955.2,286047000.8,N
1635855975.9,286047000.4,N
1635855995.7,286047000.0,N
1635856015.6,286047002.2,N
1635856035.4,286047002.2,N
1635856055.2,286047001.9,N
1635856075.1,286047002.3,N
1635856076.0,286047002.3,N
1635856095.8,286047003.9,Y
1635856115.7,286047004.2,P
1635856135.5,286047003.8,N
1635856155.3,286047004.4,N
1635856175.2,286047003.6,N
1635856195.0,286047005.8,Y
1635856195.9,286047005.8,P
1635856215.8,286047002.7,N
1635856235.6,286047001.5,N
1635856255.4,286047000.6,N
1635856275.3,286046996.9,N
1635856295.1,286046999.3,N
1635856315.8,286046999.3,N
1635856335.7,286046999.3,N
1635856355.5,286046999.2,N
1635856375.4,286046998.7,N
1635856395.2,286046999.7,N
1635856415.0,286047003.6,N
1635856415.9,286047003.6,N
1635856435.8,286047003.3,N
1635856455.6,286047003.0,N
1635856475.4,286047005.9,N
1635856495.3,286047002.4,N
1635856515.1,286047000.3,N
1635856535.8,286047000.3,N
1635856555.7,286046998.1,N
1635856575.5,286047000.8,N
1635856595.4,286046999.0,N
1635856615.2,286046998.7,N
1635856635.0,286046998.3,N
1635856635.9,286046998.3,N
1635856655.8,286046999.5,N
1635856675.6,286046996.9,N
1635856695.4,286046997.0,N
1635856715.3,286046999.1,N
1635856735.1,286046998.8,N
1635856755.9,286046999.1,N
1635856775.7,286046997.3,N
1635856795.5,286046997.6,N
1635856815.4,286046998.5,N
1635856835.2,286046999.9,N
1635856855.0,286047000.0,N
1635856855.9,286047000.0,N
1635856875.8,286047002.5,N
1635856895.6,286047002.0,N
1635856915.5,286047001.0,N
1635856935.3,286047002.6,N
1635856955.1,286047000.1,N
1635856975.9,286046998.4,N
1635856995.7,286047000.5,N
1635857015.5,286047001.0,N
1635857035.4,286046999.7,N
1635857055.2,286047000.2,N
1635857075.1,286046998.2,N
1635857076.0,286046998.2,N
1635857095.8,286046996.6,N
1635857115.6,286046999.6,N
1635857135.5,286046996.5,N
1635857155.3,286046997.8,N
1635857175.1,286046995.1,Y
1635857195.9,286046997.2,P
1635857215.7,286046997.8,N
1635857235.6,286046995.3,P
1635857255.4,286046999.1,N
1635857275.2,286046999.0,N
1635857295.1,286046996.5,N
1635857296.0,286046996.5,N
1635857315.8,286046997.8,N
1635857335.6,286046999.0,N
1635857355.5,286046999.2,N
1635857375.3,286046997.5,N
1635857395.2,286046999.5,N
1635857415.9,286046999.6,N
1635857435.7,286046997.2,N
1635857455.6,286046997.4,N
1635857475.4,286046997.2,N
1635857495.2,286046997.2,N
1635857515.1,286046995.1,Y
1635857516.0,286046995.1,P
1635857535.8,286046999.2,N
1635857555.7,286046999.0,N
1635857575.5,286046996.9,N
1635857595.3,286046997.6,N
1635857615.2,286046996.6,N
1635857635.0,286046999.5,N
1635857635.9,286046999.5,N
1635857655.8,286046997.1,N
1635857675.6,286046999.5,N
1635857695.4,286046998.8,N
1635857715.3,286047001.2,N
1635857735.1,286047000.3,N
1635857736.0,286047000.3,N
1635857755.8,286047000.3,N
1635857775.7,286046998.3,N
1635857795.5,286046998.4,N
1635857815.3,286046998.1,N
1635857835.2,286046999.0,N
1635857855.0,286046999.5,N
1635857855.9,286046999.5,N
1635857875.8,286046996.6,N
1635857895.6,286046996.5,N
1635857915.4,286046999.0,N
1635857935.3,286046996.8,N
1635857955.1,286046999.2,N
1635857975.9,286046998.4,N
1635857995.7,286046998.5,N
